Hourly Weather Roundup
Issued by NWS Central Illinois

Current Version | Previous Version | Text Only | Print | Product List | Glossary On
Versions: 1 2 3 4 5 6 7 8 9 10 11 12 13 14 15 16 17 18 19 20 21 22 23 24 25 26 27 28 29 30 31 32 33 34 35 36 37 38 39 40 41 42 43 44 45 46 47 48 49 50
000
NZUS43 KILX 301510
HWRILX

AREA WEATHER ROUNDUP
NATIONAL WEATHER SERVICE, LINCOLN IL
1000 AM CDT SAT APR 30 2016


CITY           SKY/WX    TMP DP  RH WIND       PRES   REMARKS
BLOOMINGTON    LGT RAIN  51  51 100 E21       29.90F FOG
CHAMPAIGN      LGT RAIN  53  51  93 E20       29.90F FOG
DANVILLE       RAIN      49  49  97 E10       29.94F
DECATUR        LGT RAIN  55  52  89 E22G30    29.86F FOG
EFFINGHAM      LGT RAIN  57  57 100 E16       29.85F
FLORA          LGT RAIN  59  57  94 E17       29.86F
GALESBURG      DRIZZLE   49  48  97 E13G18    29.84S
JACKSONVILLE   CLOUDY    56  54  92 E17G23    29.79F FOG
LACON          LGT RAIN  49  48  94 E16G22    29.90F
LAWRENCEVILLE  LGT RAIN  58  58 100 E10       29.92S FOG
LITCHFIELD     LGT RAIN  57  55  92 E9G16     29.78F
$$


CITY           SKY/WX    TMP DP  RH WIND       PRES   REMARKS
LINCOLN        RAIN      55  54  96 E20G25    29.86S
MACOMB         CLOUDY    51  51  99 E18G24    29.84S
MATTOON        LGT RAIN  55  53  93 E15G23    29.88F FOG
MT CARMEL AP   NOT AVBL
OLNEY-NOBLE AP HVY RAIN  55  55 100 SE12      29.91R
PARIS          LGT RAIN  54  53  97 E10G16    29.94F
PEORIA         LGT RAIN  51  49  92 E15       29.86F FOG
PONTIAC        LGT RAIN  51  50  97 E21G26    29.94F
RANTOUL        LGT RAIN  52  51  96 E15       29.93F
ROBINSON       RAIN      56  55  97 E15       29.91F
SPRINGFIELD    LGT RAIN  57  56  96 E20G28    29.82F FOG
TAYLORVILLE    LGT RAIN  55  55 100 E17       29.81F
$$

...REGIONAL REPORTS...


CITY           SKY/WX    TMP DP  RH WIND       PRES   REMARKS
CHICAGO O`HARE CLOUDY    48  39  71 E13       30.04S
KANKAKEE       RAIN      47  46  94 E15       30.00F
MOLINE         LGT RAIN  49  45  86 E21       29.87F FOG
MOUNT STERLING LGT RAIN  54  53  97 E14       29.78S
MOUNT VERNON   CLOUDY    59  54  82 E6        29.85F
PITTSFIELD     LGT RAIN  57  56  97 E10       29.78F
QUINCY         LGT RAIN  55  53  93 E21G28    29.73F FOG
ROCKFORD       CLOUDY    50  43  77 E13G20    30.03F
$$


CITY           SKY/WX    TMP DP  RH WIND       PRES   REMARKS
BURLINGTON     LGT RAIN  50  50 100 E15       29.80F FOG
CEDAR RAPIDS   LGT RAIN  46  46 100 E20       29.85F FOG
DES MOINES     LGT RAIN  47  43  86 E14G23    29.76F FOG
KIRKSVILLE     LGT RAIN  51  49  92 E12       29.72F
OTTUMWA        LGT RAIN  47  46  97 E18       29.77F FOG
ST LOUIS       LGT RAIN  62  59  90 SE9       29.77F FOG
$$


CITY           SKY/WX    TMP DP  RH WIND       PRES   REMARKS
TERRE HAUTE    LGT RAIN  56  53  90 E13       29.93F
EVANSVILLE     RAIN      59  57  93 SE6       29.91R FOG
INDIANAPOLIS   RAIN      51  48  89 E12       29.98F FOG
LAFAYETTE      RAIN      49  47  93 E15       30.00F FOG
MADISON        CLOUDY    47  38  71 E14       30.06F
MILWAUKEE      CLOUDY    45  39  79 E14       30.10R
$$






USA.gov is the U.S. government's official web portal to all federal, state and local government web resources and services.